Location: Gairloch Mountain Observatory
(46.1383°N, 60.9640°W)
Time: 04:50:34
(UTC-03:00)

CENTAUR R/B - Visible Passes

Search period start: 24 April 2014 00:00
Search period end: 04 May 2014 00:00
Orbit: 909 x 1280 km, 63.5° (Epoch: 14 April)

Date Brightness Start Highest point End Pass type
(mag) Time Alt. Az. Time Alt. Az. Time Alt. Az.
24 Apr 3.9 00:44:26 10° NW 00:50:36 33° WSW 00:50:36 33° WSW visible
24 Apr 3.5 22:05:07 10° NW 22:12:18 50° NE 22:16:49 25° ESE visible
24 Apr 3.2 23:55:55 10° NW 00:03:12 51° WSW 00:04:00 50° SW visible
25 Apr 3.9 21:17:02 10° NNW 21:23:47 37° NE 21:30:14 13° E visible
25 Apr 2.9 23:07:38 10° NW 23:15:11 77° SW 23:17:25 51° SSE visible
26 Apr 4.6 01:00:03 10° WNW 01:04:36 18° WSW 01:04:36 18° WSW visible
26 Apr 4.2 20:28:53 10° NNW 20:35:05 29° NNE 20:41:39 10° E visible
26 Apr 3.0 22:19:29 10° NW 22:27:00 76° NE 22:30:53 34° SE visible
27 Apr 4.0 00:10:53 10° NW 00:17:16 30° WSW 00:18:04 29° WSW visible
27 Apr 3.4 21:31:24 10° NW 21:38:41 54° NE 21:44:22 19° ESE visible
27 Apr 3.5 23:22:17 10° NW 23:29:27 46° WSW 23:31:34 38° SSW visible
28 Apr 3.8 20:43:19 10° NNW 20:50:11 40° NE 20:57:28 10° ESE visible
28 Apr 3.1 22:33:57 10° NW 22:41:28 70° WSW 22:45:06 35° SSE visible
29 Apr 4.7 00:26:46 10° WNW 00:31:05 16° WSW 00:32:18 16° WSW visible
29 Apr 3.0 21:45:47 10° NW 21:53:20 82° NE 21:58:41 23° SE visible
29 Apr 4.3 23:37:21 10° WNW 23:43:28 27° WSW 23:45:53 23° SW visible
30 Apr 3.3 20:57:40 10° NW 21:05:02 59° NE 21:12:18 12° ESE visible
30 Apr 3.8 22:48:39 10° NW 22:55:41 42° WSW 22:59:30 26° SSW visible
01 May 3.3 22:00:17 10° NW 22:07:44 63° WSW 22:13:10 22° SSE visible
01 May 5.0 23:53:38 10° WNW 23:57:14 14° WSW 00:00:23 11° SW visible
02 May 3.0 21:12:04 10° NW 21:19:38 89° NE 21:26:53 13° SE visible
02 May 4.5 23:03:52 10° WNW 23:09:39 24° WSW 23:14:06 15° SSW visible
03 May 4.0 22:15:03 10° NW 22:21:54 38° WSW 22:27:53 14° S visible
